Home   Weather   Provo   Past weeks

Flag for USA Past Weather in Provo, Utah, USA — Yesterday and Last 2 Weeks

Now
32 °F

Fog.


Feels Like: 29 °F
Forecast: 27 / 36 °F
Wind: 3 mph from North

Location: Provo Municipal

Current Time: Jan 20, 2017 at 12:54:02 am

Latest Report: Jan 20, 2017 at 12:18 am


Visibility: 0 mi

Pressure: 29.67 "Hg (24.95 "Hg at 1386m altitude)

Humidity: 93%

Dew Point: 30 °F

Location of ProvoLocation

Past Weather in Provo — Graph

°F

Provo Temperature Yesterday

Maximum temperature yesterday: 37 °F (at 2:08 pm)
Minimum temperature yesterday: 25 °F (at 1:56 am)
Average temperature yesterday: 33 °F

High & Low Weather Summary for the Past Weeks

 TemperatureHumidityPressure
High51 °F (Jan 8, 9:56 pm)100% (Jan 4, 11:07 pm)30.59 "Hg (Jan 4, 11:07 pm)
Low-5 °F (Jan 6, 6:56 am)50% (Jan 9, 12:56 am)29.57 "Hg (Jan 11, 5:56 am)
Average28 °F84%30.10 "Hg
* Reported Jan 4 11:07 pm — Jan 19 11:44 pm, Provo, Weather by CustomWeather, © 2017

Note: Actual official high and low records may vary slightly from our data, if they occured in-between our weather recording intervals... More about our weather records

Advertising

Provo Weather History for the Previous 24 Hours

Scroll right to see more
 ConditionsComfort  
Time TempWeatherWind HumidityBarometerVisibility
11:44 pm
Thu, Jan 19
32 °FFog.No wind93%29.69 "Hg0 mi
11:24 pm32 °FFog.No wind93%29.69 "Hg1 mi
10:56 pm32 °FIce fog.No wind96%29.73 "Hg1 mi
9:56 pm32 °FLight snow. Ice fog.No wind92%29.73 "Hg1 mi
9:28 pm32 °FLight snow. Ice fog.No wind93%29.71 "Hg1 mi
8:56 pm32 °FLight snow. Ice fog.No wind92%29.76 "Hg1 mi
8:27 pm32 °FLight snow. Ice fog.No wind93%29.72 "Hg1 mi
8:07 pm32 °FLight snow. Ice fog.5 mph93%29.72 "Hg1 mi
7:58 pm32 °FIce fog.No wind93%29.72 "Hg1 mi
7:31 pm32 °FLight snow. Ice fog.No wind93%29.73 "Hg1 mi
6:59 pm32 °FLight snow. Ice fog.No wind93%29.73 "Hg2 mi
6:26 pm34 °FLight rain. Fog.No wind87%29.74 "Hg3 mi
5:58 pm34 °FFog.No wind87%29.74 "Hg1 mi
4:58 pm34 °FLight rain. Fog.No wind87%29.73 "Hg1 mi
4:43 pm34 °FLight rain. Fog.No wind87%29.73 "Hg3 mi
4:36 pm34 °FLight rain. Fog.No wind87%29.74 "Hg2 mi
3:58 pm37 °FLight snow. Fog.No wind75%29.74 "Hg1 mi
3:28 pm36 °FLight rain. Fog.No wind87%29.74 "Hg2 mi
2:58 pm37 °FLight snow. Fog.No wind75%29.74 "Hg1 mi
2:24 pm37 °FLight rain. Fog.No wind87%29.74 "Hg2 mi
2:08 pm37 °FLight rain. Fog.No wind87%29.75 "Hg2 mi
1:24 pm36 °FLight snow. Fog.No wind93%29.76 "Hg1 mi
12:58 pm36 °FLight snow. Fog.No wind81%29.77 "Hg1 mi
12:28 pm36 °FLight snow. Fog.No wind87%29.79 "Hg1 mi
12:03 pm34 °FLight snow. Fog.3 mph87%29.80 "Hg1 mi
11:58 am34 °FLight snow. Fog.6 mph87%29.81 "Hg2 mi
11:23 am36 °FLight snow. Fog.5 mph81%29.82 "Hg1 mi
10:58 am34 °FLight snow. Fog.6 mph87%29.83 "Hg2 mi
10:31 am34 °FLight snow. Fog.8 mph87%29.84 "Hg3 mi
10:17 am34 °FLight snow. Fog.5 mph81%29.84 "Hg1 mi
9:56 am33 °FLight snow. Fog.No wind85%29.89 "Hg2 mi
9:29 am32 °FLight snow. Mostly cloudy.No wind87%29.82 "Hg8 mi
8:58 am30 °FLight snow. Ice fog.No wind93%29.81 "Hg4 mi
8:43 am32 °FLight snow. Sunny.3 mph87%29.81 "Hg8 mi
7:58 am32 °FLight snow. Ice fog.3 mph87%29.82 "Hg2 mi
7:56 am32 °FLight snow. Ice fog.3 mph88%29.88 "Hg2 mi
7:31 am32 °FLight snow. Ice fog.6 mph87%29.82 "Hg4 mi
6:58 am34 °FLight snow. Mostly cloudy.No wind70%29.81 "Hg2 mi
6:14 am34 °FLight rain. Mostly cloudy.3 mph70%29.81 "Hg10 mi
5:56 am34 °FLight rain. Mostly cloudy.5 mph73%29.86 "Hg10 mi
4:56 am33 °FOvercast.3 mph61%29.86 "Hg10 mi
3:56 am35 °FOvercast.5 mph56%29.87 "Hg10 mi
2:56 am29 °FOvercast.3 mph82%29.90 "Hg10 mi
1:56 am25 °FClear.5 mph81%29.91 "Hg10 mi
12:56 am28 °FClear.3 mph85%29.92 "Hg10 mi
Weather by CustomWeather, © 2017

See weather overviewHow to use our weather pages